Date,TemperatureHighF,TemperatureAvgF,TemperatureLowF,DewpointHighF,DewpointAvgF,DewpointLowF,HumidityHigh,HumidityAvg,HumidityLow,PressureMaxIn,PressureMinIn,WindSpeedMaxMPH,WindSpeedAvgMPH,GustSpeedMaxMPH,PrecipitationSumIn
2014-1-1,36.0,19.6,13.9,-99.9,-99.9,-99.9,0,0,100,29.10,28.91,0,-999,0,0.00
2014-1-2,19.3,12.2,6.3,-99.9,-99.9,-99.9,0,0,100,29.07,28.62,0,-999,0,0.00
2014-1-3,17.5,4.2,-9.8,-99.9,-99.9,-99.9,0,0,100,29.16,28.59,0,-999,0,0.00
2014-1-4,23.9,5.3,-10.1,-99.9,-99.9,-99.9,0,0,100,29.20,28.91,0,-999,0,0.00
2014-1-5,45.6,24.8,0.2,-99.9,-99.9,-99.9,0,0,100,29.07,28.52,0,-999,0,0.00
2014-1-6,54.6,37.8,16.7,-99.9,-99.9,-99.9,0,0,100,28.56,28.08,0,-999,0,0.00
2014-1-7,27.5,9.2,6.8,-99.9,-99.9,-99.9,0,0,100,28.97,28.40,0,-999,0,0.00
2014-1-8,29.7,12.7,5.8,-99.9,-99.9,-99.9,0,0,100,29.23,28.94,0,-999,0,0.00
2014-1-9,33.9,18.1,11.5,-99.9,-99.9,-99.9,0,0,100,29.39,29.16,0,-999,0,0.00
2014-1-10,36.2,26.1,11.4,-99.9,-99.9,-99.9,0,0,100,29.29,28.94,0,-999,0,0.00
2014-1-11,57.4,47.8,30.1,-99.9,-99.9,-99.9,0,0,100,28.94,28.01,0,-999,0,0.00
2014-1-12,41.8,35.0,32.1,-99.9,-99.9,-99.9,0,0,100,28.78,28.17,0,-999,0,0.00
2014-1-13,55.1,39.7,24.4,-99.9,-99.9,-99.9,0,0,100,28.84,28.59,0,-999,0,0.00
2014-1-14,46.5,42.1,35.5,-99.9,-99.9,-99.9,0,0,100,28.62,28.46,0,-999,0,0.00
2014-1-15,55.9,38.4,25.1,-99.9,-99.9,-99.9,0,0,100,28.75,28.59,0,-999,0,0.00
2014-1-16,35.9,30.8,28.3,-99.9,-99.9,-99.9,0,0,100,28.75,28.62,0,-999,0,0.00
2014-1-17,38.2,29.3,23.6,-99.9,-99.9,-99.9,0,0,100,28.72,28.62,0,-999,0,0.00
2014-1-18,48.0,29.2,22.3,-99.9,-99.9,-99.9,0,0,100,28.65,28.40,0,-999,0,0.00
2014-1-19,28.9,25.5,21.3,-99.9,-99.9,-99.9,0,0,100,28.56,28.27,0,-999,0,0.00
2014-1-20,33.6,26.6,13.6,-99.9,-99.9,-99.9,0,0,100,28.72,28.27,0,-999,0,0.00
2014-1-21,13.6,10.2,6.0,-99.9,-99.9,-99.9,0,0,100,28.84,28.68,0,-999,0,0.00
2014-1-22,17.3,4.7,-2.5,-99.9,-99.9,-99.9,0,0,100,28.75,28.56,0,-999,0,0.00
2014-1-23,15.9,6.2,-2.6,-99.9,-99.9,-99.9,0,0,100,28.94,28.72,0,-999,0,0.00
2014-1-24,21.4,8.7,-1.5,-99.9,-99.9,-99.9,0,0,100,29.07,28.65,0,-999,0,0.00
2014-1-25,19.4,16.5,11.9,-99.9,-99.9,-99.9,0,0,100,28.68,28.11,0,-999,0,0.00
2014-1-26,24.1,13.9,4.5,-99.9,-99.9,-99.9,0,0,100,28.59,28.14,0,-999,0,0.00
2014-1-27,38.1,22.4,9.3,-99.9,-99.9,-99.9,0,0,100,28.78,28.24,0,-999,0,0.00
2014-1-28,22.1,9.7,4.0,-99.9,-99.9,-99.9,0,0,100,29.07,28.78,0,-999,0,0.00
2014-1-29,25.5,10.6,-0.4,-99.9,-99.9,-99.9,0,0,100,28.97,28.72,0,-999,0,0.00
2014-1-30,135.4,11.2,0.6,-99.9,-99.9,-99.9,0,0,100,29.16,28.81,0,-999,0,0.00
2014-1-31,32.5,24.5,16.0,-99.9,-99.9,-99.9,0,0,100,28.97,28.72,0,-999,0,0.00
2014-2-1,44.0,29.1,16.5,-99.9,-99.9,-99.9,0,0,100,29.07,28.72,0,-999,0,0.00
2014-2-2,37.1,33.3,28.8,-99.9,-99.9,-99.9,0,0,100,28.91,28.62,0,-999,0,0.00
2014-2-3,29.6,26.7,22.5,-99.9,-99.9,-99.9,0,0,100,29.07,28.88,0,-999,0,0.00
2014-2-4,37.8,24.7,17.8,-99.9,-99.9,-99.9,0,0,100,29.23,28.97,0,-999,0,0.00
2014-2-5,27.1,23.1,17.2,-99.9,-99.9,-99.9,0,0,100,29.00,28.40,0,-999,0,0.00
2014-2-6,22.3,-3.2,-27.3,-99.9,-99.9,-99.9,0,0,100,29.07,28.75,0,-999,0,0.00
2014-2-7,28.8,11.6,0.3,-99.9,-99.9,-99.9,0,0,100,29.04,28.91,0,-999,0,0.00
2014-2-8,25.7,12.3,-0.2,-99.9,-99.9,-99.9,0,0,100,29.07,28.88,0,-999,0,0.00
2014-2-9,32.4,19.5,9.3,-99.9,-99.9,-99.9,0,0,100,28.94,28.68,0,-999,0,0.00
2014-2-10,27.6,16.4,5.1,-99.9,-99.9,-99.9,0,0,100,28.97,28.68,0,-999,0,0.00
2014-2-11,26.3,11.5,0.9,-99.9,-99.9,-99.9,0,0,100,29.23,28.94,0,-999,0,0.00
2014-2-12,29.0,8.6,-4.6,-99.9,-99.9,-99.9,0,0,100,29.33,29.07,0,-999,0,0.00
2014-2-13,30.5,21.9,6.6,-99.9,-99.9,-99.9,0,0,100,29.07,27.85,0,-999,0,0.00
2014-2-14,29.0,6.9,-27.4,-99.9,-99.9,-99.9,0,0,100,28.52,27.79,0,-999,0,0.00
2014-2-15,37.7,4.4,-27.3,-99.9,-99.9,-99.9,0,0,100,28.59,28.43,0,-999,0,0.00
2014-2-16,30.5,17.9,7.4,-99.9,-99.9,-99.9,0,0,100,28.81,28.43,0,-999,0,0.00
2014-2-17,29.0,12.0,-0.1,-99.9,-99.9,-99.9,0,0,100,29.13,28.81,0,-999,0,0.00
2014-2-18,42.9,19.4,2.6,-99.9,-99.9,-99.9,0,0,100,29.04,28.68,0,-999,0,0.00
2014-2-19,33.8,24.6,10.3,-99.9,-99.9,-99.9,0,0,100,28.84,28.46,0,-999,0,0.00
2014-2-20,53.0,33.8,20.8,-99.9,-99.9,-99.9,0,0,100,29.00,28.72,0,-999,0,0.00
2014-2-21,48.6,36.2,27.9,-99.9,-99.9,-99.9,0,0,100,28.84,28.40,0,-999,0,0.00
2014-2-22,51.2,34.7,22.8,-99.9,-99.9,-99.9,0,0,100,28.75,28.59,0,-999,0,0.00
2014-2-23,45.1,34.3,27.4,-99.9,-99.9,-99.9,0,0,100,28.75,28.59,0,-999,0,0.00
2014-2-24,29.3,22.6,17.0,-99.9,-99.9,-99.9,0,0,100,28.75,28.56,0,-999,0,0.00
2014-2-25,24.8,17.0,9.8,-99.9,-99.9,-99.9,0,0,100,28.75,28.65,0,-999,0,0.00
2014-2-26,23.8,12.6,3.6,-99.9,-99.9,-99.9,0,0,100,28.68,28.56,0,-999,0,0.00
2014-2-27,24.4,13.0,4.3,-99.9,-99.9,-99.9,0,0,100,28.75,28.33,0,-999,0,0.00
2014-2-28,25.6,9.4,-1.3,-99.9,-99.9,-99.9,0,0,100,29.16,3.41,0,-999,0,0.00
2014-3-1,34.0,19.0,1.7,-99.9,-99.9,-99.9,0,0,100,29.16,28.81,0,-999,0,0.00
2014-3-2,30.3,24.0,14.1,-99.9,-99.9,-99.9,0,0,100,28.88,28.78,0,-999,0,0.00
2014-3-3,20.2,12.5,3.3,-99.9,-99.9,-99.9,0,0,100,29.07,28.81,0,-999,0,0.00
2014-3-4,24.6,11.8,-1.2,-99.9,-99.9,-99.9,0,0,100,29.13,28.97,0,-999,0,0.00
2014-3-5,27.2,18.3,8.8,-99.9,-99.9,-99.9,0,0,100,29.26,28.97,0,-999,0,0.00
2014-3-6,33.6,14.0,0.0,-99.9,-99.9,-99.9,0,0,100,29.39,29.20,0,-999,0,0.00
2014-3-7,45.7,22.1,2.1,-99.9,-99.9,-99.9,0,0,100,29.20,28.72,0,-999,0,0.00
2014-3-8,53.2,32.2,17.6,-99.9,-99.9,-99.9,0,0,100,28.72,28.56,0,-999,0,0.00
2014-3-9,43.2,27.7,18.0,-99.9,-99.9,-99.9,0,0,100,28.78,28.62,0,-999,0,0.00
2014-3-10,37.2,29.9,22.9,-99.9,-99.9,-99.9,0,0,100,28.65,28.30,0,-999,0,0.00
2014-3-11,54.6,40.2,32.4,-99.9,-99.9,-99.9,0,0,100,28.52,28.27,0,-999,0,0.00
2014-3-12,35.7,30.6,16.8,-99.9,-99.9,-99.9,0,0,100,28.52,27.92,0,-999,0,0.00
2014-3-13,20.7,13.3,6.2,-99.9,-99.9,-99.9,0,0,100,28.78,28.01,0,-999,0,0.00
2014-3-14,36.0,20.9,3.8,-99.9,-99.9,-99.9,0,0,100,28.88,28.59,0,-999,0,0.00
2014-3-15,42.7,36.2,25.6,-99.9,-99.9,-99.9,0,0,100,28.75,28.43,0,-999,0,0.00
2014-3-16,33.6,22.0,13.1,-99.9,-99.9,-99.9,0,0,100,28.97,28.72,0,-999,0,0.00
2014-3-17,33.5,18.2,8.7,-99.9,-99.9,-99.9,0,0,100,28.97,28.81,0,-999,0,0.00
2014-3-18,44.7,24.5,9.7,-99.9,-99.9,-99.9,0,0,100,29.07,28.88,0,-999,0,0.00
2014-3-19,38.5,29.0,18.2,-99.9,-99.9,-99.9,0,0,100,29.07,28.62,0,-999,0,0.00
2014-3-20,40.4,34.0,29.7,-99.9,-99.9,-99.9,0,0,100,28.65,28.43,0,-999,0,0.00
2014-3-21,31.7,28.0,19.9,-99.9,-99.9,-99.9,0,0,100,28.84,28.56,0,-999,0,0.00
2014-3-22,43.4,29.7,17.9,-99.9,-99.9,-99.9,0,0,100,28.84,28.46,0,-999,0,0.00
2014-3-23,35.3,27.0,14.5,-99.9,-99.9,-99.9,0,0,100,28.91,28.72,0,-999,0,0.00
2014-3-24,32.5,19.4,9.7,-99.9,-99.9,-99.9,0,0,100,28.97,28.81,0,-999,0,0.00
2014-3-25,34.9,22.4,9.7,-99.9,-99.9,-99.9,0,0,100,28.91,28.68,0,-999,0,0.00
2014-3-26,31.9,23.7,15.4,-99.9,-99.9,-99.9,0,0,100,28.91,28.56,0,-999,0,0.00
2014-3-27,38.9,25.7,9.7,-99.9,-99.9,-99.9,0,0,100,29.13,28.88,0,-999,0,0.00
2014-3-28,43.7,36.7,30.1,-99.9,-99.9,-99.9,0,0,100,28.94,28.65,0,-999,0,0.00
2014-3-29,54.8,41.9,33.9,-99.9,-99.9,-99.9,0,0,100,29.04,28.65,0,-999,0,0.00
2014-3-30,41.3,36.7,30.4,-99.9,-99.9,-99.9,0,0,100,28.65,28.43,0,-999,0,0.00
2014-3-31,33.7,30.0,27.1,-99.9,-99.9,-99.9,0,0,100,28.88,28.52,0,-999,0,0.00
2014-4-1,56.9,37.1,21.5,-99.9,-99.9,-99.9,0,0,100,28.94,28.75,0,-999,0,0.00
2014-4-2,58.2,41.1,27.9,-99.9,-99.9,-99.9,0,0,100,28.91,28.75,0,-999,0,0.00
2014-4-3,55.7,37.1,22.0,-99.9,-99.9,-99.9,0,0,100,28.94,28.81,0,-999,0,0.00
2014-4-4,51.5,38.4,26.3,-99.9,-99.9,-99.9,0,0,100,28.88,28.56,0,-999,0,0.00
2014-4-5,41.6,35.5,30.5,-99.9,-99.9,-99.9,0,0,100,28.81,28.46,0,-999,0,0.00
2014-4-6,53.1,37.3,22.5,-99.9,-99.9,-99.9,0,0,100,29.00,28.78,0,-999,0,0.00
2014-4-7,59.5,41.7,15.8,-99.9,-99.9,-99.9,0,0,100,28.97,28.49,0,-999,0,0.00
2014-4-8,61.9,47.2,35.4,-99.9,-99.9,-99.9,0,0,100,28.49,28.08,0,-999,0,0.00
2014-4-9,57.6,39.1,25.9,-99.9,-99.9,-99.9,0,0,100,28.78,28.40,0,-999,0,0.00
2014-4-10,64.7,44.2,20.7,-99.9,-99.9,-99.9,0,0,100,28.91,28.68,0,-999,0,0.00
2014-4-11,73.2,52.4,39.3,-99.9,-99.9,-99.9,0,0,100,28.84,28.65,0,-999,0,0.00
2014-4-12,70.3,49.3,31.7,-99.9,-99.9,-99.9,0,0,100,29.00,28.78,0,-999,0,0.00
2014-4-13,73.8,59.0,42.1,-99.9,-99.9,-99.9,0,0,100,28.97,28.68,0,-999,0,0.00
2014-4-14,79.1,68.8,62.0,-99.9,-99.9,-99.9,0,0,100,28.75,28.56,0,-999,0,0.00
2014-4-15,65.6,52.6,27.2,-99.9,-99.9,-99.9,0,0,100,28.72,28.27,0,-999,0,0.00
2014-4-16,27.0,-6.3,-27.4,-99.9,-99.9,-99.9,0,0,100,29.36,28.68,0,-999,0,0.00
2014-4-17,53.7,22.8,-27.3,-99.9,-99.9,-99.9,0,0,100,29.52,29.33,0,-999,0,0.00
2014-4-18,126.7,34.3,22.9,-99.9,-99.9,-99.9,0,0,100,29.39,28.97,0,-999,0,0.00
2014-4-19,63.5,43.9,30.0,-99.9,-99.9,-99.9,0,0,100,29.20,28.94,0,-999,0,0.00
2014-4-20,69.8,46.3,24.4,-99.9,-99.9,-99.9,0,0,100,29.29,29.04,0,-999,0,0.00
2014-4-21,79.3,54.4,29.3,-99.9,-99.9,-99.9,0,0,100,29.04,28.59,0,-999,0,0.00
2014-4-22,79.9,56.6,42.0,-99.9,-99.9,-99.9,0,0,100,28.62,28.27,0,-999,0,0.00
2014-4-23,51.6,44.0,39.8,-99.9,-99.9,-99.9,0,0,100,28.56,28.30,0,-999,0,0.00
2014-4-24,59.4,44.2,31.1,-99.9,-99.9,-99.9,0,0,100,28.78,28.52,0,-999,0,0.00
2014-4-25,68.7,48.5,24.5,-99.9,-99.9,-99.9,0,0,100,28.84,28.52,0,-999,0,0.00
2014-4-26,55.2,44.5,39.7,-99.9,-99.9,-99.9,0,0,100,28.65,28.49,0,-999,0,0.00
2014-4-27,47.5,41.6,37.7,-99.9,-99.9,-99.9,0,0,100,28.91,28.62,0,-999,0,0.00
2014-4-28,65.3,49.0,34.7,-99.9,-99.9,-99.9,0,0,100,28.97,28.81,0,-999,0,0.00
2014-4-29,55.7,45.0,38.5,-99.9,-99.9,-99.9,0,0,100,29.23,28.94,0,-999,0,0.00
2014-4-30,44.9,40.6,35.9,-99.9,-99.9,-99.9,0,0,100,29.23,28.81,0,-999,0,0.00
2014-5-1,73.6,56.6,44.3,-99.9,-99.9,-99.9,0,0,100,28.81,28.46,0,-999,0,0.00
2014-5-2,62.5,50.0,35.2,-99.9,-99.9,-99.9,0,0,100,28.62,28.49,0,-999,0,0.00
2014-5-3,64.9,51.8,42.2,-99.9,-99.9,-99.9,0,0,100,28.65,28.46,0,-999,0,0.00
2014-5-4,47.2,43.7,40.0,-99.9,-99.9,-99.9,0,0,100,28.52,28.40,0,-999,0,0.00
2014-5-5,59.8,46.8,39.5,-99.9,-99.9,-99.9,0,0,100,28.72,28.52,0,-999,0,0.00
2014-5-6,67.3,48.5,32.6,-99.9,-99.9,-99.9,0,0,100,28.88,28.65,0,-999,0,0.00
2014-5-7,69.8,49.3,27.7,-99.9,-99.9,-99.9,0,0,100,29.04,28.84,0,-999,0,0.00
2014-5-8,80.5,58.6,38.1,-99.9,-99.9,-99.9,0,0,100,28.97,28.81,0,-999,0,0.00
2014-5-9,67.8,58.4,50.6,-99.9,-99.9,-99.9,0,0,100,28.97,28.78,0,-999,0,0.00
2014-5-10,82.7,68.1,60.6,-99.9,-99.9,-99.9,0,0,100,28.78,28.52,0,-999,0,0.00
2014-5-11,78.5,61.6,44.2,-99.9,-99.9,-99.9,0,0,100,28.88,28.65,0,-999,0,0.00
2014-5-12,88.9,65.9,41.8,-99.9,-99.9,-99.9,0,0,100,28.91,28.78,0,-999,0,0.00
2014-5-13,66.3,60.6,51.6,-99.9,-99.9,-99.9,0,0,100,29.04,28.84,0,-999,0,0.00
2014-5-14,82.9,65.3,50.2,-99.9,-99.9,-99.9,0,0,100,29.04,28.91,0,-999,0,0.00
2014-5-15,74.1,68.5,61.3,-99.9,-99.9,-99.9,0,0,100,29.04,28.88,0,-999,0,0.00
2014-5-16,71.9,67.9,55.7,-99.9,-99.9,-99.9,0,0,100,28.88,28.62,0,-999,0,0.00
2014-5-17,63.8,50.7,39.1,-99.9,-99.9,-99.9,0,0,100,28.91,28.59,0,-999,0,0.00
2014-5-18,71.3,50.7,31.7,-99.9,-99.9,-99.9,0,0,100,28.97,28.84,0,-999,0,0.00
2014-5-19,72.6,52.6,31.7,-99.9,-99.9,-99.9,0,0,100,28.97,28.81,0,-999,0,0.00
2014-5-20,77.0,55.1,29.4,-99.9,-99.9,-99.9,0,0,100,29.00,28.75,0,-999,0,0.00
2014-5-21,85.8,61.9,39.2,-99.9,-99.9,-99.9,0,0,100,28.81,28.65,0,-999,0,0.00
2014-5-22,66.6,56.4,48.6,-99.9,-99.9,-99.9,0,0,100,28.68,28.59,0,-999,0,0.00
2014-5-23,65.5,56.8,49.1,-99.9,-99.9,-99.9,0,0,100,28.75,28.62,0,-999,0,0.00
2014-5-24,72.6,58.8,51.1,-99.9,-99.9,-99.9,0,0,100,28.88,28.72,0,-999,0,0.00
2014-5-25,83.6,64.2,51.7,-99.9,-99.9,-99.9,0,0,100,28.88,28.78,0,-999,0,0.00
2014-5-26,76.0,60.1,48.1,-99.9,-99.9,-99.9,0,0,100,28.81,28.62,0,-999,0,0.00
2014-5-27,86.8,66.4,50.0,-99.9,-99.9,-99.9,0,0,100,28.68,28.49,0,-999,0,0.00
2014-5-28,56.0,51.1,46.8,-99.9,-99.9,-99.9,0,0,100,29.00,28.62,0,-999,0,0.00
2014-5-29,75.9,57.3,36.5,-99.9,-99.9,-99.9,0,0,100,29.00,28.84,0,-999,0,0.00
2014-5-30,81.4,59.3,46.2,-99.9,-99.9,-99.9,0,0,100,28.91,28.78,0,-999,0,0.00
2014-5-31,71.7,58.0,44.5,-99.9,-99.9,-99.9,0,0,100,29.10,28.88,0,-999,0,0.00
2014-6-1,83.2,62.0,41.5,-99.9,-99.9,-99.9,0,0,100,29.16,28.97,0,-999,0,0.00
2014-6-2,89.1,67.1,44.4,-99.9,-99.9,-99.9,0,0,100,29.00,28.78,0,-999,0,0.00
2014-6-3,94.8,71.2,54.7,-99.9,-99.9,-99.9,0,0,100,28.81,28.59,0,-999,0,0.00
2014-6-4,81.1,67.8,55.7,-99.9,-99.9,-99.9,0,0,100,28.68,28.56,0,-999,0,0.00
2014-6-5,78.4,62.7,54.7,-99.9,-99.9,-99.9,0,0,100,28.59,28.46,0,-999,0,0.00
2014-6-6,74.4,60.8,52.8,-99.9,-99.9,-99.9,0,0,100,28.75,28.56,0,-999,0,0.00
2014-6-7,85.5,65.7,45.1,-99.9,-99.9,-99.9,0,0,100,28.81,28.68,0,-999,0,0.00
2014-6-8,99.0,70.6,50.2,-99.9,-99.9,-99.9,0,0,100,28.78,28.65,0,-999,0,0.00
2014-6-9,72.9,64.2,57.8,-99.9,-99.9,-99.9,0,0,100,28.81,28.68,0,-999,0,0.00
2014-6-10,79.5,68.3,57.9,-99.9,-99.9,-99.9,0,0,100,28.88,28.72,0,-999,0,0.00
2014-6-11,66.0,62.0,59.3,-99.9,-99.9,-99.9,0,0,100,28.94,28.84,0,-999,0,0.00
2014-6-12,70.1,62.2,56.5,-99.9,-99.9,-99.9,0,0,100,28.91,28.75,0,-999,0,0.00
2014-6-13,74.6,66.0,61.3,-99.9,-99.9,-99.9,0,0,100,28.78,28.56,0,-999,0,0.00
2014-6-14,71.2,61.3,54.5,-99.9,-99.9,-99.9,0,0,100,28.81,28.56,0,-999,0,0.00
2014-6-15,81.1,62.6,52.7,-99.9,-99.9,-99.9,0,0,100,28.91,28.78,0,-999,0,0.00
2014-6-16,88.1,66.3,45.4,-99.9,-99.9,-99.9,0,0,100,28.97,28.81,0,-999,0,0.00
2014-6-17,91.9,74.5,56.3,-99.9,-99.9,-99.9,0,0,100,28.88,28.56,0,-999,0,0.00
2014-6-18,80.1,71.3,65.0,-99.9,-99.9,-99.9,0,0,100,28.81,28.52,0,-999,0,0.00
2014-6-19,86.9,71.4,53.0,-99.9,-99.9,-99.9,0,0,100,28.84,28.75,0,-999,0,0.00
2014-6-20,80.9,61.1,44.6,-99.9,-99.9,-99.9,0,0,100,28.84,28.72,0,-999,0,0.00
2014-6-21,83.3,61.3,43.3,-99.9,-99.9,-99.9,0,0,100,28.81,28.68,0,-999,0,0.00
2014-6-22,86.4,66.2,47.0,-99.9,-99.9,-99.9,0,0,100,28.84,28.72,0,-999,0,0.00
2014-6-23,91.6,70.8,51.5,-99.9,-99.9,-99.9,0,0,100,28.91,28.81,0,-999,0,0.00
2014-6-24,77.6,71.7,64.3,-99.9,-99.9,-99.9,0,0,100,28.91,28.75,0,-999,0,0.00
2014-6-25,86.5,74.2,67.6,-99.9,-99.9,-99.9,0,0,100,28.78,28.62,0,-999,0,0.00
2014-6-26,82.2,71.3,60.9,-99.9,-99.9,-99.9,0,0,100,28.84,28.62,0,-999,0,0.00
2014-6-27,90.7,70.8,54.4,-99.9,-99.9,-99.9,0,0,100,29.00,28.81,0,-999,0,0.00
2014-6-28,92.6,71.5,54.0,-99.9,-99.9,-99.9,0,0,100,29.10,29.00,0,-999,0,0.00
2014-6-29,94.5,73.9,55.1,-99.9,-99.9,-99.9,0,0,100,29.07,28.84,0,-999,0,0.00
2014-6-30,90.1,74.5,59.6,-99.9,-99.9,-99.9,0,0,100,28.91,28.72,0,-999,0,0.00
2014-7-1,95.7,79.3,64.6,-99.9,-99.9,-99.9,0,0,100,28.75,28.56,0,-999,0,0.00
2014-7-2,97.5,75.8,67.3,-99.9,-99.9,-99.9,0,0,100,28.75,28.59,0,-999,0,0.00
2014-7-3,94.0,76.0,64.8,-99.9,-99.9,-99.9,0,0,100,28.81,28.65,0,-999,0,0.00
2014-7-4,76.9,66.0,60.2,-99.9,-99.9,-99.9,0,0,100,28.84,28.72,0,-999,0,0.00
2014-7-5,84.2,67.8,52.0,-99.9,-99.9,-99.9,0,0,100,28.88,28.75,0,-999,0,0.00
2014-7-6,85.7,67.9,50.2,-99.9,-99.9,-99.9,0,0,100,28.88,28.65,0,-999,0,0.00
2014-7-7,87.0,71.2,57.9,-99.9,-99.9,-99.9,0,0,100,28.68,28.46,0,-999,0,0.00
2014-7-8,88.5,76.8,65.9,-99.9,-99.9,-99.9,0,0,100,28.62,28.40,0,-999,0,0.00
2014-7-9,86.1,71.6,62.4,-99.9,-99.9,-99.9,0,0,100,28.78,28.46,0,-999,0,0.00
2014-7-10,83.6,68.3,56.3,-99.9,0.0,200.0,0,0,100,28.97,28.78,0,0,0,0.00
2014-7-11,87.6,67.3,51.3,-99.9,0.0,200.0,0,0,100,29.04,28.94,0,0,0,0.00
2014-7-12,89.8,71.0,51.1,-99.9,0.0,200.0,0,0,100,29.04,28.88,0,0,0,0.00
2014-7-13,83.6,74.2,68.0,-99.9,0.0,200.0,0,0,100,28.88,28.62,0,0,0,0.00
2014-7-14,91.9,77.7,70.1,-99.9,0.0,200.0,0,0,100,28.75,28.62,0,0,0,0.00
2014-7-15,82.2,72.8,65.0,-99.9,0.0,200.0,0,0,100,28.68,28.52,0,0,0,0.00
2014-7-16,82.0,70.3,59.1,-99.9,0.0,200.0,0,0,100,28.72,28.56,0,0,0,0.00
2014-7-17,82.4,65.5,51.5,-99.9,0.0,200.0,0,0,100,28.91,28.68,0,0,0,0.00
2014-7-18,85.0,65.7,49.1,-99.9,0.0,200.0,0,0,100,29.07,28.91,0,0,0,0.00
2014-7-19,80.7,65.8,53.3,-99.9,0.0,200.0,0,0,100,29.07,28.97,0,0,0,0.00
2014-7-20,84.6,68.0,58.2,-99.9,0.0,200.0,0,0,100,29.00,28.91,0,0,0,0.00
2014-7-21,90.2,71.4,54.2,-99.9,0.0,200.0,0,0,100,29.00,28.91,0,0,0,0.00
2014-7-22,92.5,75.6,59.2,-99.9,0.0,200.0,0,0,100,28.97,28.78,0,0,0,0.00
2014-7-23,94.0,77.0,66.7,-99.9,0.0,200.0,0,0,100,28.81,28.56,0,0,0,0.00
2014-7-24,86.2,70.1,56.5,-99.9,0.0,200.0,0,0,100,28.78,28.62,0,0,0,0.00
2014-7-25,84.0,65.2,49.0,-99.9,0.0,200.0,0,0,100,28.84,28.75,0,0,0,0.00
2014-7-26,87.5,68.1,54.4,-99.9,0.0,200.0,0,0,100,28.81,28.68,0,0,0,0.00
2014-7-27,83.0,68.7,60.0,-99.9,0.0,200.0,0,0,100,28.72,28.46,0,0,0,0.00
2014-7-28,82.2,67.5,60.2,-99.9,0.0,200.0,0,0,100,28.49,28.27,0,0,0,0.00
2014-7-29,76.5,63.3,55.6,-99.9,0.0,200.0,0,0,100,28.78,28.46,0,0,0,0.00
2014-7-30,82.0,64.6,54.3,-99.9,0.0,200.0,0,0,100,28.84,28.75,0,0,0,0.00
2014-7-31,75.6,62.0,55.1,-99.9,0.0,200.0,0,0,100,28.94,28.81,0,0,0,0.00
2014-8-1,86.6,69.2,54.0,-99.9,0.0,200.0,0,0,100,29.04,28.94,0,0,0,0.00
2014-8-2,84.8,69.3,59.0,-99.9,0.0,200.0,0,0,100,29.00,28.88,0,0,0,0.00
2014-8-3,85.0,67.3,54.6,-99.9,0.0,200.0,0,0,100,28.94,28.81,0,0,0,0.00
2014-8-4,84.8,68.9,59.2,-99.9,0.0,200.0,0,0,100,28.88,28.81,0,0,0,0.00
2014-8-5,91.0,70.3,56.6,-99.9,0.0,200.0,0,0,100,28.88,28.72,0,0,0,0.00
2014-8-6,84.2,69.3,56.9,-99.9,0.0,200.0,0,0,100,28.75,28.62,0,0,0,0.00
2014-8-7,82.1,61.7,51.0,-99.9,0.0,200.0,0,0,100,28.81,28.68,0,0,0,0.00
2014-8-8,82.5,63.9,49.2,-99.9,0.0,200.0,0,0,100,28.91,28.78,0,0,0,0.00
2014-8-9,87.8,66.9,50.0,-99.9,0.0,200.0,0,0,100,28.97,28.88,0,0,0,0.00
2014-8-10,90.6,69.0,52.0,-99.9,0.0,200.0,0,0,100,29.00,28.91,0,0,0,0.00
2014-8-11,92.9,71.6,55.6,-99.9,0.0,200.0,0,0,100,28.97,28.88,0,0,0,0.00
2014-8-12,78.3,66.9,55.6,-99.9,0.0,200.0,0,0,100,28.91,28.72,0,0,0,0.00
2014-8-13,70.1,66.8,61.3,-99.9,0.0,200.0,0,0,100,28.72,28.46,0,0,0,0.00
2014-8-14,73.2,61.0,51.8,-99.9,0.0,200.0,0,0,100,28.72,28.56,0,0,0,0.00
2014-8-15,63.1,55.5,48.4,-99.9,0.0,200.0,0,0,100,28.75,28.65,0,0,0,0.00
2014-8-16,77.2,60.9,47.0,-99.9,0.0,200.0,0,0,100,28.78,28.68,0,0,0,0.00
2014-8-17,78.2,63.0,52.1,-99.9,0.0,200.0,0,0,100,28.72,28.62,0,0,0,0.00
2014-8-18,80.7,62.4,50.5,-99.9,0.0,200.0,0,0,100,28.72,28.62,0,0,0,0.00
2014-8-19,83.6,61.3,45.2,-99.9,0.0,200.0,0,0,100,28.78,28.68,0,0,0,0.00
2014-8-20,87.2,68.2,51.2,-99.9,0.0,200.0,0,0,100,28.81,28.72,0,0,0,0.00
2014-8-21,79.2,67.6,63.0,-99.9,0.0,200.0,0,0,100,28.88,28.81,0,0,0,0.00
2014-8-22,67.4,63.2,59.3,-99.9,0.0,200.0,0,0,100,28.91,28.81,0,0,0,0.00
2014-8-23,79.9,65.2,55.9,-99.9,0.0,200.0,0,0,100,28.94,28.88,0,0,0,0.00
2014-8-24,90.0,65.7,52.0,-99.9,0.0,200.0,0,0,100,28.97,28.91,0,0,0,0.00
2014-8-25,91.0,68.7,52.2,-99.9,0.0,200.0,0,0,100,29.04,28.91,0,0,0,0.00
2014-8-26,91.2,70.4,54.3,-99.9,0.0,200.0,0,0,100,29.00,28.81,0,0,0,0.00
2014-8-27,90.0,71.4,58.6,-99.9,0.0,200.0,0,0,100,28.84,28.68,0,0,0,0.00
2014-8-28,84.8,66.3,52.5,-99.9,0.0,200.0,0,0,100,28.88,28.68,0,0,0,0.00
2014-8-29,83.2,62.7,48.7,-99.9,0.0,200.0,0,0,100,29.04,28.84,0,0,0,0.00
2014-8-30,82.8,65.5,50.1,-99.9,0.0,200.0,0,0,100,29.07,28.88,0,0,0,0.00
2014-8-31,92.6,71.9,63.3,-99.9,0.0,200.0,0,0,100,28.91,28.75,0,0,0,0.00
2014-9-1,91.7,75.8,66.8,-99.9,0.0,200.0,0,0,100,28.84,28.72,0,0,0,0.00
2014-9-2,88.7,75.6,66.5,-99.9,0.0,200.0,0,0,100,28.75,28.52,0,0,0,0.00
2014-9-3,84.1,69.7,57.1,-99.9,0.0,200.0,0,0,100,28.94,28.59,0,0,0,0.00
2014-9-4,90.2,68.2,51.3,-99.9,0.0,200.0,0,0,100,29.00,28.88,0,0,0,0.00
2014-9-5,93.9,74.4,58.7,-99.9,0.0,200.0,0,0,100,28.97,28.78,0,0,0,0.00
2014-9-6,87.9,72.2,62.7,-99.9,0.0,200.0,0,0,100,28.78,28.62,0,0,0,0.00
2014-9-7,84.0,66.1,52.8,-99.9,0.0,200.0,0,0,100,29.04,28.75,0,0,0,0.00
2014-9-8,83.2,62.4,47.9,-99.9,0.0,200.0,0,0,100,29.16,29.00,0,0,0,0.00
2014-9-9,77.9,59.0,43.9,-99.9,0.0,200.0,0,0,100,29.16,28.97,0,0,0,0.00
2014-9-10,83.6,62.1,47.1,-99.9,0.0,200.0,0,0,100,28.97,28.78,0,0,0,0.00
2014-9-11,70.9,64.0,57.2,-99.9,0.0,200.0,0,0,100,28.78,28.56,0,0,0,0.00
2014-9-12,69.1,55.5,44.2,-99.9,0.0,200.0,0,0,100,29.04,28.78,0,0,0,0.00
2014-9-13,58.9,50.0,40.4,-99.9,0.0,200.0,0,0,100,29.04,28.84,0,0,0,0.00
2014-9-14,63.5,49.7,40.1,-99.9,0.0,200.0,0,0,100,29.07,28.94,0,0,0,0.00
2014-9-15,71.1,50.5,36.1,-99.9,0.0,200.0,0,0,100,29.04,28.84,0,0,0,0.00
2014-9-16,64.2,53.7,45.1,-99.9,0.0,200.0,0,0,100,28.88,28.72,0,0,0,0.00
2014-9-17,73.4,51.1,36.8,-99.9,0.0,200.0,0,0,100,28.84,28.72,0,0,0,0.00
2014-9-18,74.9,51.4,36.4,-99.9,0.0,200.0,0,0,100,28.94,28.72,0,0,0,0.00
2014-9-19,67.3,47.3,34.1,-99.9,0.0,200.0,0,0,100,29.16,28.94,0,0,0,0.00
2014-9-20,71.9,58.3,45.5,-99.9,0.0,200.0,0,0,100,29.10,28.81,0,0,0,0.00
2014-9-21,86.6,70.3,57.4,-99.9,0.0,200.0,0,0,100,28.84,28.36,0,0,0,0.00
2014-9-22,64.3,54.9,46.9,-99.9,0.0,200.0,0,0,100,28.94,28.43,0,0,0,0.00
2014-9-23,72.1,52.4,34.7,-99.9,0.0,200.0,0,0,100,29.23,28.91,0,0,0,0.00
2014-9-24,80.1,56.5,43.7,-99.9,0.0,200.0,0,0,100,29.39,29.20,0,0,0,0.00
2014-9-25,70.4,54.7,45.0,-99.9,0.0,200.0,0,0,100,29.29,29.04,0,0,0,0.00
2014-9-26,83.8,58.7,41.3,-99.9,0.0,200.0,0,0,100,29.07,28.94,0,0,0,0.00
2014-9-27,84.9,61.3,42.9,-99.9,0.0,200.0,0,0,100,29.07,28.94,0,0,0,0.00
2014-9-28,87.4,63.2,47.7,-99.9,0.0,200.0,0,0,100,29.00,28.81,0,0,0,0.00
2014-9-29,81.8,60.7,48.7,-99.9,0.0,200.0,0,0,100,28.81,28.72,0,0,0,0.00
2014-9-30,75.8,61.1,54.1,-99.9,0.0,200.0,0,0,100,28.81,28.72,0,0,0,0.00
2014-10-1,61.7,57.1,53.2,-99.9,0.0,200.0,0,0,100,28.91,28.81,0,0,0,0.00
2014-10-2,73.6,59.3,51.0,-99.9,0.0,200.0,0,0,100,28.97,28.84,0,0,0,0.00
2014-10-3,80.0,57.7,42.7,-99.9,0.0,200.0,0,0,100,28.94,28.62,0,0,0,0.00
2014-10-4,57.9,53.6,47.5,-99.9,0.0,200.0,0,0,100,28.62,28.30,0,0,0,0.00
2014-10-5,63.6,47.1,34.7,-99.9,0.0,200.0,0,0,100,28.75,28.43,0,0,0,0.00
2014-10-6,70.1,50.7,31.3,-99.9,0.0,200.0,0,0,100,28.84,28.72,0,0,0,0.00
2014-10-7,73.4,60.4,54.3,-99.9,0.0,200.0,0,0,100,28.84,28.65,0,0,0,0.00
2014-10-8,69.2,58.5,47.5,-99.9,0.0,200.0,0,0,100,28.72,28.46,0,0,0,0.00
2014-10-9,64.8,47.9,35.9,-99.9,0.0,200.0,0,0,100,28.78,28.65,0,0,0,0.00
2014-10-10,58.1,43.4,32.9,-99.9,0.0,200.0,0,0,100,28.91,28.78,0,0,0,0.00
2014-10-11,64.0,45.3,33.6,-99.9,0.0,200.0,0,0,100,28.94,28.81,0,0,0,0.00
2014-10-12,65.1,44.1,29.1,-99.9,0.0,200.0,0,0,100,29.10,28.91,0,0,0,0.00
2014-10-13,62.0,46.7,29.3,-99.9,0.0,200.0,0,0,100,29.07,28.97,0,0,0,0.00
2014-10-14,75.4,65.6,56.8,-99.9,0.0,200.0,0,0,100,29.00,28.88,0,0,0,0.00
2014-10-15,81.6,70.9,65.0,-99.9,0.0,200.0,0,0,100,28.91,28.68,0,0,0,0.00
2014-10-16,72.3,65.4,57.5,-99.9,0.0,200.0,0,0,100,28.68,28.43,0,0,0,0.00
2014-10-17,70.4,60.4,55.4,-99.9,0.0,200.0,0,0,100,28.49,28.40,0,0,0,0.00
2014-10-18,59.2,54.8,46.6,-99.9,0.0,200.0,0,0,100,28.49,28.33,0,0,0,0.00
2014-10-19,49.2,42.0,30.1,-99.9,0.0,200.0,0,0,100,28.78,28.46,0,0,0,0.00
2014-10-20,55.8,40.1,24.6,-99.9,0.0,200.0,0,0,100,28.84,28.68,0,0,0,0.00
2014-10-21,50.9,47.5,44.0,-99.9,0.0,200.0,0,0,100,28.78,28.65,0,0,0,0.00
2014-10-22,55.4,48.5,45.7,-99.9,0.0,200.0,0,0,100,28.88,28.65,0,0,0,0.00
2014-10-23,47.8,43.8,41.4,-99.9,0.0,200.0,0,0,100,28.68,28.52,0,0,0,0.00
2014-10-24,46.4,42.9,40.7,-99.9,0.0,200.0,0,0,100,28.62,28.56,0,0,0,0.00
2014-10-25,59.7,47.4,35.4,-99.9,0.0,200.0,0,0,100,28.62,28.30,0,0,0,0.00
2014-10-26,50.0,44.8,41.7,-99.9,0.0,200.0,0,0,100,28.56,28.27,0,0,0,0.00
2014-10-27,57.8,45.7,33.4,-99.9,0.0,200.0,0,0,100,28.84,28.52,0,0,0,0.00
2014-10-28,74.5,55.2,33.2,-99.9,0.0,200.0,0,0,100,28.84,28.65,0,0,0,0.00
2014-10-29,65.0,54.0,40.7,-99.9,0.0,200.0,0,0,100,28.75,28.62,0,0,0,0.00
2014-10-30,57.2,45.0,39.9,-99.9,0.0,200.0,0,0,100,28.81,28.68,0,0,0,0.00
2014-10-31,59.6,41.7,27.7,-99.9,0.0,200.0,0,0,100,28.84,28.72,0,0,0,0.00
2014-11-1,45.6,39.0,34.7,-99.9,0.0,200.0,0,0,100,28.78,28.65,0,0,0,0.00
2014-11-2,41.5,33.4,21.5,-99.9,0.0,200.0,0,0,100,28.75,28.62,0,0,0,0.00
2014-11-3,53.6,35.8,20.7,-99.9,0.0,200.0,0,0,100,28.88,28.72,0,0,0,0.00
2014-11-4,63.7,47.9,28.2,-99.9,0.0,200.0,0,0,100,28.91,28.75,0,0,0,0.00
2014-11-5,55.4,45.3,29.0,-99.9,0.0,200.0,0,0,100,28.91,28.68,0,0,0,0.00
2014-11-6,48.0,39.1,31.0,-99.9,0.0,200.0,0,0,100,28.91,28.36,0,0,0,0.00
2014-11-7,40.3,35.6,30.8,-99.9,0.0,200.0,0,0,100,28.65,28.33,0,0,0,0.00
2014-11-8,47.6,36.0,28.9,-99.9,0.0,200.0,0,0,100,28.78,28.62,0,0,0,0.00
2014-11-9,52.8,38.0,25.5,-99.9,0.0,200.0,0,0,100,28.78,28.59,0,0,0,0.00
2014-11-10,56.8,37.3,24.9,-99.9,0.0,200.0,0,0,100,28.94,28.78,0,0,0,0.00
2014-11-11,66.7,49.0,29.9,-99.9,0.0,200.0,0,0,100,28.91,28.68,0,0,0,0.00
2014-11-12,58.7,41.4,26.1,-99.9,0.0,200.0,0,0,100,28.88,28.62,0,0,0,0.00
2014-11-13,41.5,31.2,21.8,-99.9,0.0,200.0,0,0,100,28.88,28.72,0,0,0,0.00
2014-11-14,42.7,30.2,23.0,-99.9,0.0,200.0,0,0,100,28.91,28.68,0,0,0,0.00
2014-11-15,41.8,27.1,18.1,-99.9,0.0,200.0,0,0,100,29.10,28.88,0,0,0,0.00
2014-11-16,41.3,29.0,17.4,-99.9,0.0,200.0,0,0,100,29.10,28.81,0,0,0,0.00
2014-11-17,38.7,33.4,29.6,-99.9,0.0,200.0,0,0,100,28.84,28.24,0,0,0,0.00
2014-11-18,32.9,24.2,17.8,-99.9,0.0,200.0,0,0,100,28.68,28.30,0,0,0,0.00
2014-11-19,34.2,23.1,17.7,-99.9,0.0,200.0,0,0,100,28.94,28.68,0,0,0,0.00
2014-11-20,41.3,27.2,18.3,-99.9,0.0,200.0,0,0,100,28.75,28.56,0,0,0,0.00
2014-11-21,27.9,21.1,14.6,-99.9,0.0,200.0,0,0,100,29.16,28.68,0,0,0,0.00
2014-11-22,39.3,28.2,14.2,-99.9,0.0,200.0,0,0,100,29.16,28.81,0,0,0,0.00
2014-11-23,57.9,39.8,32.3,-99.9,0.0,200.0,0,0,100,28.91,28.78,0,0,0,0.00
2014-11-24,64.5,56.5,35.4,-99.9,0.0,200.0,0,0,100,28.78,28.30,0,0,0,0.00
2014-11-25,59.3,44.9,29.2,-99.9,0.0,200.0,0,0,100,28.94,28.46,0,0,0,0.00
2014-11-26,33.3,29.5,26.1,-99.9,0.0,200.0,0,0,100,29.00,28.59,0,0,0,0.00
2014-11-27,27.2,-10.7,-27.3,-99.9,0.0,200.0,0,0,100,28.81,28.59,0,0,0,0.00
2014-11-28,-26.7,-27.2,-27.3,-99.9,0.0,200.0,0,0,100,29.00,28.75,0,0,0,0.00
2014-11-29,-26.8,-27.2,-27.4,-99.9,0.0,200.0,0,0,100,29.10,28.88,0,0,0,0.00
2014-11-30,-26.9,-27.2,-27.4,-99.9,0.0,200.0,0,0,100,28.91,28.75,0,0,0,0.00
2014-12-1,-26.8,-27.2,-27.4,-99.9,0.0,200.0,0,0,100,29.26,28.72,0,0,0,0.00
2014-12-2,-26.9,-27.2,-27.4,-99.9,0.0,200.0,0,0,100,29.45,29.04,0,0,0,0.00
2014-12-3,-26.9,-27.2,-27.4,-99.9,0.0,200.0,0,0,100,29.07,28.65,0,0,0,0.00
2014-12-4,-26.8,-27.2,-27.3,-99.9,0.0,200.0,0,0,100,29.29,28.88,0,0,0,0.00
2014-12-5,-26.8,-27.2,-27.4,-99.9,0.0,200.0,0,0,100,29.39,29.10,0,0,0,0.00
2014-12-6,-26.9,-27.2,-27.4,-99.9,0.0,200.0,0,0,100,29.10,28.91,0,0,0,0.00
2014-12-7,-26.9,-27.2,-27.4,-99.9,0.0,200.0,0,0,100,29.49,29.07,0,0,0,0.00
2014-12-8,-26.8,-27.2,-27.4,-99.9,0.0,200.0,0,0,100,29.45,29.16,0,0,0,0.00
2014-12-9,-26.8,-27.2,-27.4,-99.9,0.0,200.0,0,0,100,29.20,28.46,0,0,0,0.00
2014-12-10,-26.8,-27.2,-27.4,-99.9,0.0,200.0,0,0,100,28.49,28.27,0,0,0,0.00
2014-12-11,-26.8,-27.2,-27.4,-99.9,0.0,200.0,0,0,100,28.59,28.30,0,0,0,0.00
2014-12-12,-26.9,-27.2,-27.4,-99.9,0.0,200.0,0,0,100,28.75,28.59,0,0,0,0.00
2014-12-13,-26.7,-27.2,-27.4,-99.9,0.0,200.0,0,0,100,28.75,28.62,0,0,0,0.00
2014-12-14,-26.8,-27.2,-27.4,-99.9,0.0,200.0,0,0,100,28.78,28.62,0,0,0,0.00
2014-12-15,-26.7,-27.2,-27.4,-99.9,0.0,200.0,0,0,100,28.91,28.75,0,0,0,0.00
2014-12-16,-26.8,-27.2,-27.4,-99.9,0.0,200.0,0,0,100,28.88,28.65,0,0,0,0.00
2014-12-17,-26.7,-27.2,-27.4,-99.9,0.0,200.0,0,0,100,28.65,28.52,0,0,0,0.00
2014-12-18,-27.0,-27.2,-27.4,-99.9,0.0,200.0,0,0,100,28.72,28.56,0,0,0,0.00
2014-12-19,-26.8,-27.2,-27.4,-99.9,0.0,200.0,0,0,100,28.94,28.68,0,0,0,0.00
2014-12-20,-26.8,-27.2,-27.3,-99.9,0.0,200.0,0,0,100,29.10,28.94,0,0,0,0.00
2014-12-21,-26.8,-27.2,-27.4,-99.9,0.0,200.0,0,0,100,29.13,29.04,0,0,0,0.00
2014-12-22,-26.9,-27.2,-27.3,-99.9,0.0,200.0,0,0,100,29.13,28.97,0,0,0,0.00
2014-12-23,-26.9,-27.2,-27.4,-99.9,0.0,200.0,0,0,100,29.00,28.88,0,0,0,0.00
2014-12-24,-26.8,-27.2,-27.4,-99.9,0.0,200.0,0,0,100,28.88,28.27,0,0,0,0.00
2014-12-25,-26.9,-27.2,-27.4,-99.9,0.0,200.0,0,0,100,28.81,28.20,0,0,0,0.00
2014-12-26,-26.9,-27.2,-27.4,-99.9,0.0,200.0,0,0,100,28.97,28.81,0,0,0,0.00
2014-12-27,-26.8,-27.2,-27.4,-99.9,0.0,200.0,0,0,100,29.00,28.84,0,0,0,0.00